sat.trackr.live / text

‹ back to catalog

STARLINK-30327

NORAD 57707 · 2023-129K

PAYLOAD ACTIVE UNKNOWN

§ Identity

Operator
Country
US
Launch date
2023-08-27
Launch site
AFETR
Launch vehicle
Mass (kg)
RCS (m²)

Purposes: comms

External: N2YO · Heavens-Above · Gunter

§ Orbital elements

Epoch: 2026-05-24T23:49:23.048832Z

Period
93.82 min
Inclination
42.9986°
Eccentricity
0.0026635
Mean motion
15.34846309 rev/d
Perigee alt
443.2 km
Apogee alt
479.6 km
Semi-major
6,839.5 km
B*
2.4682e-3
RAAN
11.9871°
Arg perigee
225.0742°
Mean anomaly
134.7951°
Rev number
15,262

§ Raw data

STARLINK-303271 57707U 23129K   26144.99262788  .00086876  00000+0  24682-2 0  99992 57707  42.9986  11.9871 0026635 225.0742 134.7951 15.34846309152626

JSON: /api/v1/satellites/57707 · /tle

For live sub-satellite position, see the globe view (requires WebGL).

§ Visibility from observer

Set your observer location to see the next 7 days of passes ≥ 10°. The values pass through the URL so the page stays shareable.

No JS? Fill the form by hand. The geolocation button needs JavaScript.